Probability
0 0 0 0 0 0 0 0 0 0 0 0 0 0 0 0 0 0 0 0 0 0 0 0 0 0 0 0 0 0 0 0 0 0 0 0 0 0 0 0 0 0 0 0 0 1 3 3 2
0 0 0 0 0 0 0 0 0 0 0 0 0 0 0 0 0 0 0 0 0 0 0 0 0 0 0 0 0 0 0 0 0 0 0 0 0 0 0 0 0 0 0 0 0 0 1 1 1
0 0 0 0 0 0 0 0 0 0 0 0 0 0 0 0 0 0 0 0 0 0 0 0 0 0 0 0 0 0 0 0 0 0 0 0 0 0 0 0 0 0 0 0 0 0 0 0 0
0 0 0 0 0 0 0 0 0 0 0 0 0 0 0 0 0 0 0 0 0 0 0 0 0 0 0 0 0 0 0 0 0 0 0 0 0 0 0 0 0 0 0 0 0 0 0 0 0
0 0 0 0 0 0 0 0 0 0 0 0 0 0 0 0 0 0 0 0 0 0 0 0 0 0 0 0 0 0 0 0 0 0 0 0 0 0 0 0 0 0 0 0 0 0 0 0 0
0 0 0 0 0 0 0 0 0 0 0 0 0 0 0 0 0 0 0 0 0 0 0 0 0 0 0 0 0 0 0 0 0 0 0 0 0 0 0 0 0 0 0 0 0 0 0 0 0
0 0 0 0 0 0 0 0 0 0 0 0 0 0 0 0 0 0 0 0 0 0 0 0 0 0 0 0 0 0 0 0 0 0 0 0 0 0 0 0 0 0 0 0 0 0 0 0 0
0 0 0 0 0 0 0 0 0 0 0 0 0 0 0 0 0 0 0 0 0 0 0 0 0 0 0 0 0 0 0 0 0 0 0 0 0 0 0 0 0 0 0 0 0 0 0 0 0
0 0 0 0 0 0 0 0 0 0 0 0 0 0 0 0 0 0 0 0 0 0 0 0 0 0 0 0 0 0 0 0 0 0 0 0 0 0 0 0 0 0 0 0 0 0 0 0 0
0 0 0 0 0 0 0 0 0 0 0 0 0 0 0 0 0 0 0 0 0 0 0 0 0 0 0 0 0 0 0 0 0 0 0 0 0 0 0 0 0 0 0 0 0 0 0 0 0
0 0 0 0 0 0 0 0 0 0 0 0 0 0 0 0 0 0 0 0 0 0 0 0 0 0 0 0 0 0 0 0 0 0 0 0 0 0 0 0 0 0 0 0 0 0 0 0 0
0 0 0 0 0 0 0 0 0 0 0 0 0 0 0 0 0 0 0 0 0 0 0 0 0 0 0 0 0 0 0 0 0 0 0 0 0 0 0 0 0 0 0 0 0 0 0 0 0
0 0 0 0 0 0 0 0 0 0 0 0 0 0 0 0 0 0 0 0 0 0 0 0 0 0 0 0 0 0 0 0 0 0 0 0 0 0 0 0 0 0 0 0 0 0 0 0 0
0 0 0 0 0 0 0 0 0 0 0 0 0 0 0 0 0 0 0 0 0 0 1 1 0 0 0 0 0 0 0 0 0 0 0 0 0 0 0 0 0 0 0 0 0 0 0 0 0
0 0 0 0 0 0 0 0 0 0 0 0 0 0 0 0 0 0 0 0 0 1 4 6 3 0 0 0 0 0 0 0 0 0 0 0 0 0 0 0 0 0 0 0 0 0 0 0 0
0 0 0 0 0 0 0 0 0 0 0 0 0 0 0 0 0 0 0 0 0 2 7 11 8 4 1 0 0 0 0 0 0 0 0 0 0 0 0 0 0 0 0 0 0 0 0 0 0
0 0 0 0 0 0 0 0 0 0 0 0 0 0 0 0 0 0 0 0 0 2 6 10 10 6 2 0 0 0 0 0 0 0 0 0 0 0 0 0 0 0 0 0 0 0 0 0 0
0 0 0 0 0 0 0 0 0 0 0 0 0 0 0 0 0 0 0 0 0 1 2 4 5 3 1 0 0 0 0 0 0 0 0 0 0 0 0 0 0 0 0 0 0 0 0 0 0
0 0 0 0 0 0 0 0 0 0 0 0 0 0 0 0 0 0 0 0 0 0 0 0 0 0 0 0 0 0 0 0 0 0 0 0 0 0 0 0 0 0 0 0 0 0 0 0 0
0 0 0 0 0 0 0 0 0 0 0 0 0 0 0 0 0 0 0 0 0 0 0 0 0 0 0 0 0 0 0 0 0 0 0 0 0 0 0 0 0 0 0 0 0 0 0 0 0
0 0 0 0 0 0 0 0 0 0 0 0 0 0 0 0 0 0 0 0 0 0 0 0 0 0 0 0 0 0 0 0 0 0 0 0 0 0 0 0 0 0 0 0 0 0 0 0 0
0 0 0 0 0 0 0 0 0 0 0 0 0 0 0 0 0 0 0 0 0 0 0 0 0 0 0 0 0 0 0 0 0 0 0 0 0 0 0 0 0 0 0 0 0 0 0 0 0
0 0 0 0 0 0 0 0 0 0 0 0 0 0 0 0 0 0 0 0 0 0 0 0 0 0 0 0 0 0 0 0 0 0 0 0 0 0 0 0 0 0 0 0 0 0 0 0 0
0 0 0 0 0 0 0 0 0 0 0 0 0 0 0 0 0 0 0 0 0 0 0 0 0 0 0 0 0 0 0 0 0 0 0 0 0 0 0 0 0 0 0 0 0 0 0 0 0
0 0 0 0 0 0 0 0 0 0 0 0 0 0 0 0 0 0 0 0 0 0 0 0 0 0 0 0 0 0 0 0 0 0 0 0 0 0 0 0 0 0 0 0 0 0 0 0 0
0 0 0 0 0 0 0 0 0 0 0 0 0 0 0 0 0 0 0 0 0 0 0 0 0 0 0 0 0 0 0 0 0 0 0 0 0 0 0 0 0 0 0 0 0 0 0 0 0
0 0 0 0 0 0 0 0 0 0 0 0 0 0 0 0 0 0 0 0 0 0 0 0 0 0 0 0 0 0 0 0 0 0 0 0 0 0 0 0 0 0 0 0 0 0 0 0 0
0 0 0 0 0 0 0 0 0 0 0 0 0 0 0 0 0 0 0 0 0 0 0 0 0 0 0 0 0 0 0 0 0 0 0 0 0 0 0 0 0 0 0 0 0 0 0 0 0
0 0 0 0 0 0 0 0 0 0 0 0 0 0 0 0 0 0 0 0 0 0 0 0 0 0 0 0 0 0 0 0 0 0 0 0 0 0 0 0 0 0 0 0 0 0 0 0 0
0 0 0 0 0 0 0 0 0 0 0 0 0 0 0 0 0 0 0 0 0 0 0 0 0 0 0 0 0 0 0 0 0 0 0 0 0 0 0 0 0 0 0 0 0 0 0 0 0
Wind_Speed
4 2 1 4 7 6 2 2 2 2 0 2 3 6 6 4 2 1 1 6 6 7 7 9 11 10 9 9 10 11 12 13 13 11 11 11 11 11 12 12 12 12 12 10 9 10 10 11 10
1 1 3 6 6 3 5 3 2 2 3 4 4 3 4 2 2 3 3 5 7 8 6 7 11 11 10 10 10 11 12 13 13 12 11 10 10 11 12 12 13 12 12 10 10 10 10 10 10
1 3 5 5 2 1 4 4 2 2 4 2 3 2 2 3 3 4 4 8 8 7 5 6 12 11 11 10 11 12 13 13 13 12 11 10 9 10 11 11 12 12 11 10 10 9 9 9 9
3 5 6 4 0 3 4 5 1 6 2 2 3 3 2 1 5 4 7 10 8 6 5 6 12 11 11 11 12 13 13 13 13 13 11 10 10 10 10 10 11 11 11 10 10 9 8 7 7
4 4 5 2 2 5 5 4 1 5 4 2 4 3 1 2 4 7 9 9 8 6 5 6 11 11 11 11 12 12 13 13 13 13 12 11 11 11 10 9 10 10 11 10 9 8 8 6 8
5 5 5 2 3 6 5 3 0 3 3 3 5 4 1 1 5 6 6 6 6 6 5 6 11 11 12 12 13 12 12 12 12 12 11 11 11 11 11 10 9 10 10 10 9 9 9 11 13
5 5 4 4 1 5 5 2 2 3 3 4 6 6 1 2 4 6 7 6 5 5 5 4 5 7 12 13 13 13 12 12 12 12 12 11 11 12 12 11 10 10 10 11 10 9 10 12 12
5 6 3 2 3 4 5 3 1 4 3 4 5 7 5 5 6 8 7 6 5 4 4 4 4 4 5 7 12 13 13 12 12 12 12 12 11 12 12 11 10 10 11 12 11 12 12 14 12
4 6 3 5 5 5 4 1 2 2 5 3 3 5 5 11 10 8 5 3 4 4 3 4 4 4 5 5 8 10 12 12 11 9 11 9 4 4 6 9 10 10 11 12 12 13 13 13 12
4 4 8 6 5 4 3 1 1 3 3 1 1 2 7 13 11 9 7 7 6 6 4 4 4 5 4 4 4 3 4 5 5 4 5 4 4 3 4 6 10 10 11 11 12 12 12 9 5
2 5 4 4 5 4 3 1 1 3 1 5 6 7 10 10 10 10 9 8 7 6 6 6 5 5 5 3 3 2 2 3 4 5 5 5 3 2 2 2 3 5 7 5 6 7 4 5 4
1 3 2 2 2 3 2 2 1 3 5 5 7 11 12 14 13 13 12 9 7 7 9 9 8 6 6 5 4 5 4 3 3 4 6 5 3 2 2 2 2 3 3 4 3 3 5 6 6
2 2 2 4 5 4 2 3 3 4 5 3 8 10 12 15 14 12 10 9 8 9 10 10 11 10 8 6 5 5 5 5 5 4 5 5 4 4 3 2 2 3 3 3 3 4 6 6 5
3 2 4 5 4 3 3 4 3 7 3 6 10 11 12 13 13 10 9 9 10 10 10 9 10 10 9 6 4 4 4 4 4 4 5 6 4 4 4 3 3 2 3 3 3 4 5 4 4
1 2 4 3 3 4 3 5 7 6 4 7 9 9 9 9 9 11 11 11 12 10 11 12 12 9 7 6 5 4 4 4 4 4 5 6 5 5 4 3 3 3 3 4 4 4 4 5 4
1 2 2 4 2 2 6 6 10 3 5 6 5 6 6 6 7 7 7 8 9 9 12 14 12 10 9 7 6 4 4 4 4 4 5 7 6 6 5 4 4 4 3 4 4 3 4 4 4
2 1 1 5 2 1 3 6 10 1 6 6 6 6 5 4 4 3 3 6 9 12 13 13 11 9 10 9 6 5 4 5 4 4 5 6 7 7 5 5 4 5 4 3 4 3 3 4 4
3 2 2 4 3 0 3 8 11 3 5 6 7 6 6 6 3 1 3 3 4 6 8 8 6 4 6 5 4 3 3 4 3 4 5 7 7 7 6 5 5 6 5 4 4 4 3 3 4
2 2 4 7 6 3 7 10 13 7 4 6 7 7 7 5 1 3 4 3 1 1 3 4 4 4 5 3 3 3 3 3 3 3 4 6 7 7 7 5 6 6 6 7 7 4 4 3 3
2 3 5 9 7 4 6 8 9 5 5 7 9 11 7 3 1 3 4 3 0 2 3 4 4 5 5 3 3 2 2 2 2 2 3 5 6 7 8 7 7 7 6 7 7 6 4 3 3
4 4 5 7 7 3 2 6 6 5 3 2 4 7 7 7 6 4 3 1 1 3 4 4 4 5 5 5 3 2 2 2 2 3 3 5 6 7 7 8 8 7 7 8 9 8 7 5 3
5 5 5 7 4 5 1 4 7 5 6 3 4 7 8 7 6 5 5 4 3 2 3 4 5 5 5 6 5 4 4 3 4 3 3 4 5 6 5 6 7 8 7 8 10 8 5 8 5
5 5 4 5 5 3 2 3 8 4 6 6 6 7 8 8 8 7 7 6 4 3 4 4 5 5 5 5 5 4 3 3 3 3 5 4 4 5 5 4 5 6 5 7 8 6 5 5 5
3 2 3 4 3 3 5 4 7 5 7 4 5 7 8 8 7 6 6 4 3 2 3 3 4 3 4 4 4 4 5 4 4 4 6 5 4 5 7 6 4 3 4 6 6 6 6 5 5
3 2 4 5 3 5 4 3 9 7 6 6 7 8 8 8 7 7 7 7 6 5 4 3 3 2 3 5 5 5 6 6 6 5 6 7 5 5 7 6 4 3 3 4 5 5 5 5 5
5 9 7 5 4 5 3 5 8 5 4 3 4 5 7 8 8 9 10 8 7 6 5 4 4 3 3 4 4 4 5 4 3 4 5 6 5 5 8 7 5 3 4 5 5 4 4 5 5
3 5 7 6 3 2 5 7 10 3 1 1 3 4 8 10 10 10 8 7 7 6 6 6 5 4 4 4 4 4 5 5 5 5 4 4 4 6 8 8 6 3 4 5 6 5 5 5 5
2 4 4 5 6 4 5 5 5 4 4 3 3 5 8 8 8 8 6 6 6 7 6 5 5 5 4 3 3 3 4 4 4 5 5 5 5 5 7 7 6 5 5 5 4 3 4 5 5
2 1 3 3 4 5 3 7 7 5 5 5 6 6 7 8 8 8 6 5 6 6 6 6 6 5 4 4 3 3 3 4 4 4 5 5 5 5 7 7 7 7 6 5 4 3 3 4 4
2 2 4 4 3 3 4 9 7 4 4 4 5 6 7 7 7 7 6 6 6 7 6 6 6 6 6 5 4 4 4 5 5 5 5 4 5 6 6 6 6 5 5 5 5 5 6 5 6
Wind_Direction
343 13 85 60 48 44 351 283 241 269 301 35 62 90 105 116 153 199 102 137 140 143 161 169 169 168 166 167 158 152 147 140 136 134 134 131 130 131 129 127 123 117 110 103 92 86 80 73 70
350 16 47 53 65 35 303 278 244 240 135 116 81 86 98 116 131 132 133 153 144 150 158 162 168 166 164 165 158 154 148 139 137 136 134 135 139 138 135 130 125 116 108 99 91 87 82 73 77
9 39 74 62 62 185 283 295 259 107 133 104 87 71 118 154 158 170 168 144 140 148 151 169 165 162 161 161 155 152 149 143 140 137 135 139 138 134 132 129 123 113 104 95 88 86 83 78 83
60 45 60 82 359 252 252 282 235 127 137 82 113 94 33 346 159 162 137 138 140 145 149 168 160 158 158 157 151 149 150 147 142 138 137 136 127 128 134 130 119 111 102 92 86 87 87 79 82
56 78 79 80 320 295 279 281 213 145 159 131 122 115 48 8 123 133 139 142 145 150 151 162 160 156 155 154 149 151 151 148 142 137 138 137 131 131 134 129 114 106 97 92 89 92 87 73 96
59 68 95 152 288 308 292 285 238 118 137 141 132 125 202 165 140 142 134 132 139 146 147 153 161 156 154 151 149 153 152 147 141 137 137 134 130 127 130 127 110 97 93 94 93 90 80 89 103
105 92 129 168 144 317 298 299 157 145 169 187 147 127 212 205 150 119 109 111 121 127 127 137 153 158 156 151 151 152 152 147 142 137 133 132 131 130 128 125 108 97 97 97 94 85 88 99 101
116 100 96 173 157 264 275 295 209 171 189 150 129 145 196 197 133 110 101 103 111 113 124 136 138 134 133 145 153 154 155 151 147 139 135 135 137 135 132 126 113 106 103 98 91 82 95 102 94
103 83 163 201 183 240 262 304 7 112 121 142 179 183 187 140 130 119 110 114 138 143 141 142 133 120 121 140 161 157 158 158 151 144 142 129 103 107 121 132 124 113 109 101 89 84 98 98 88
97 139 204 203 203 240 269 276 342 73 103 141 98 105 132 139 150 158 166 172 177 176 171 156 148 140 142 153 136 138 142 150 140 136 131 114 109 118 127 143 134 124 112 98 86 87 98 92 72
141 184 208 222 231 251 271 286 111 120 183 206 193 164 144 153 166 183 188 183 187 178 179 173 169 158 155 145 132 137 130 136 137 135 132 123 111 109 99 92 109 98 91 80 76 80 90 92 81
189 239 221 256 274 278 279 298 314 185 225 219 186 162 160 169 183 194 198 194 183 175 188 183 177 171 174 171 167 165 157 158 158 152 145 135 127 125 124 116 110 94 88 83 69 81 96 91 79
210 254 254 268 284 275 284 270 268 254 253 202 146 155 176 184 193 200 202 194 186 191 194 195 189 185 185 182 182 177 171 169 166 158 157 149 144 150 145 141 128 106 100 94 87 103 109 104 92
214 263 281 271 274 271 249 266 237 252 223 161 162 178 191 195 198 198 202 198 197 198 197 200 204 199 191 181 179 179 174 171 165 166 163 156 155 156 157 153 141 126 122 109 104 123 118 112 107
238 311 321 280 249 246 196 275 238 231 168 189 192 195 204 208 204 206 208 207 203 198 195 201 207 202 192 183 182 182 176 175 181 174 166 160 168 168 166 163 152 147 138 121 107 108 107 112 109
157 51 329 291 260 227 156 248 263 226 172 205 209 214 222 220 220 224 223 220 208 198 199 207 208 194 183 181 185 183 178 178 191 178 167 168 178 176 167 175 163 151 145 136 131 134 115 115 114
40 74 272 297 301 123 170 245 272 218 179 201 207 217 212 200 202 223 251 232 215 206 203 204 204 191 182 181 187 187 176 183 190 186 175 174 180 179 171 185 163 156 160 155 151 138 131 128 121
206 208 249 273 297 327 245 259 275 267 192 207 197 197 193 190 184 355 340 300 242 214 205 202 188 159 158 162 170 182 186 194 187 198 192 175 178 180 177 186 166 163 167 164 155 138 117 120 126
190 206 258 266 262 241 246 257 271 286 215 205 190 193 202 197 293 352 2 350 297 178 174 167 151 133 134 141 163 179 204 202 189 204 210 188 181 183 182 183 167 170 177 173 154 134 129 121 126
257 279 281 287 283 236 244 262 271 280 231 210 195 194 190 174 255 316 344 0 248 192 179 161 149 146 156 151 146 162 157 170 165 170 212 209 192 188 191 181 177 175 171 161 160 145 136 139 156
242 230 255 269 305 334 266 295 296 293 289 285 198 175 169 183 201 230 269 287 211 199 191 176 155 148 153 143 120 104 93 94 134 176 196 214 200 191 186 180 175 174 173 176 174 165 154 154 170
260 256 262 273 287 284 273 274 282 288 299 278 182 164 175 188 196 208 223 234 217 190 157 158 158 156 157 155 164 167 169 176 182 176 183 194 200 195 185 177 176 178 181 179 182 172 164 151 155
257 309 307 271 240 260 284 232 279 300 278 255 195 183 185 191 194 200 211 222 219 180 161 163 162 162 164 168 166 161 163 169 160 157 157 155 161 160 150 153 171 184 183 174 176 165 159 150 154
266 345 20 39 74 267 244 203 279 251 236 249 195 192 190 191 200 209 214 216 223 206 180 162 158 153 150 161 166 178 186 186 179 172 163 158 150 138 129 122 139 168 173 173 176 163 160 156 156
178 122 352 342 359 263 288 218 252 257 246 224 200 198 189 191 200 210 210 207 210 208 203 187 178 168 153 165 182 196 196 196 197 182 172 166 161 150 134 121 119 138 164 169 166 167 176 171 171
214 170 183 220 232 285 310 244 258 274 296 217 189 180 182 199 207 212 210 205 203 203 200 199 203 194 171 183 194 193 198 200 200 182 171 170 161 146 140 131 133 155 173 176 170 169 183 185 191
184 204 186 153 175 256 285 288 300 291 338 83 135 165 200 213 216 217 212 203 194 195 202 203 208 206 186 192 188 183 193 198 195 179 169 165 155 149 147 146 154 172 187 185 172 171 176 179 193
166 154 105 136 161 229 283 281 262 285 265 265 233 222 230 232 233 231 218 206 195 192 193 194 203 211 199 193 193 183 194 198 187 172 176 175 166 156 159 164 169 178 191 198 194 176 170 177 192
348 66 103 114 152 160 237 266 231 241 262 258 262 264 258 250 242 238 225 205 195 185 182 186 192 195 189 193 202 189 194 196 184 181 186 180 171 168 173 180 184 188 194 199 202 202 209 213 212
191 184 158 161 219 192 196 262 265 250 264 250 268 277 270 263 250 238 217 194 192 193 189 186 188 195 193 183 193 201 187 185 184 185 186 178 175 179 179 180 189 193 192 192 201 215 221 223 231